PAA111 KLAX-PHNL

Flight info

Callsign PAA111
Flight time N/A
Altitude 36000
Route SUMMR2 DINTY DUETS R576 DUSAC/N0477F380 R576 DENNS MAGGI3
Aircraft L101/H-SDFGHIRWXY/S

Departure

Time N/A
Airport Los Angeles International Airport (KLAX)

Arrival

Time 2026-05-05 06:31
Airport Daniel K. Inouye International Airport (PHNL)
Time Latitude Longitude Altitude Speed Heading
2026-05-05 03:44 28.44589 -140.12096 36249 ft 441 kts 250°
2026-05-05 03:44 28.42199 -140.18511 36250 ft 441 kts 250°
2026-05-05 03:45 28.39803 -140.24931 36249 ft 441 kts 250°
2026-05-05 03:45 28.37403 -140.31351 36253 ft 441 kts 250°
2026-05-05 03:46 28.35000 -140.37767 36250 ft 441 kts 250°
2026-05-05 03:46 28.32594 -140.44182 36248 ft 441 kts 249°
2026-05-05 03:47 28.30183 -140.50595 36248 ft 442 kts 249°
2026-05-05 03:47 28.27784 -140.56969 36248 ft 442 kts 249°
2026-05-05 03:48 28.25367 -140.63379 36251 ft 442 kts 249°
2026-05-05 03:48 28.22947 -140.69788 36250 ft 443 kts 249°
2026-05-05 03:49 28.20520 -140.76205 36243 ft 443 kts 249°
2026-05-05 03:49 28.18089 -140.82616 36248 ft 442 kts 249°
2026-05-05 03:50 28.15655 -140.89029 36247 ft 442 kts 249°
2026-05-05 03:50 28.13217 -140.95441 36248 ft 443 kts 249°
2026-05-05 03:51 28.10786 -141.01825 36246 ft 443 kts 249°
2026-05-05 03:51 28.08341 -141.08231 36244 ft 443 kts 249°
2026-05-05 03:52 28.05890 -141.14644 36242 ft 443 kts 249°
2026-05-05 03:52 28.03434 -141.21059 36243 ft 443 kts 249°
2026-05-05 03:53 28.00983 -141.27453 36245 ft 443 kts 249°
2026-05-05 03:53 27.98525 -141.33853 36252 ft 443 kts 249°
2026-05-05 03:54 27.96080 -141.40208 36241 ft 444 kts 249°
2026-05-05 03:54 27.93613 -141.46608 36246 ft 444 kts 249°
2026-05-05 03:55 27.91143 -141.53007 36244 ft 444 kts 249°
2026-05-05 03:55 27.88665 -141.59417 36244 ft 444 kts 249°
2026-05-05 03:56 27.86189 -141.65811 36249 ft 444 kts 249°
2026-05-05 03:56 27.83707 -141.72211 36242 ft 445 kts 249°
2026-05-05 03:57 27.81237 -141.78566 36245 ft 445 kts 249°
2026-05-05 03:57 27.78746 -141.84967 36246 ft 445 kts 249°
2026-05-05 03:58 27.76251 -141.91366 36245 ft 445 kts 249°
2026-05-05 03:58 27.73753 -141.97764 36247 ft 445 kts 248°
2026-05-05 03:59 27.71252 -142.04160 36243 ft 445 kts 248°
2026-05-05 03:59 27.68749 -142.10549 36244 ft 445 kts 248°
2026-05-05 04:00 27.66237 -142.16950 36248 ft 445 kts 248°
2026-05-05 04:00 27.63743 -142.23297 36248 ft 445 kts 248°
2026-05-05 04:01 27.61230 -142.29680 36248 ft 445 kts 248°
2026-05-05 04:01 27.58712 -142.36066 36233 ft 446 kts 248°
2026-05-05 04:02 27.56189 -142.42455 36243 ft 446 kts 248°
2026-05-05 04:02 27.53663 -142.48841 36244 ft 446 kts 248°
2026-05-05 04:03 27.51133 -142.55225 36240 ft 446 kts 248°
2026-05-05 04:03 27.49031 -142.60522 36242 ft 446 kts 248°
2026-05-05 04:04 27.46083 -142.67941 36243 ft 446 kts 248°
2026-05-05 04:04 27.43544 -142.74319 36246 ft 446 kts 248°
2026-05-05 04:05 27.41431 -142.79617 36234 ft 446 kts 248°
2026-05-05 04:05 27.38887 -142.85988 36246 ft 446 kts 248°
2026-05-05 04:06 27.36335 -142.92370 36236 ft 446 kts 248°
2026-05-05 04:06 27.33783 -142.98739 36237 ft 446 kts 248°
2026-05-05 04:07 27.31245 -143.05066 36237 ft 446 kts 248°
2026-05-05 04:07 27.28690 -143.11423 36236 ft 446 kts 248°
2026-05-05 04:08 27.26130 -143.17784 36237 ft 446 kts 248°
2026-05-05 04:08 27.23570 -143.24134 36237 ft 446 kts 248°
2026-05-05 04:09 27.21005 -143.30486 36238 ft 446 kts 248°
2026-05-05 04:09 27.18447 -143.36811 36230 ft 446 kts 248°
2026-05-05 04:10 27.15879 -143.43152 36240 ft 446 kts 248°
2026-05-05 04:10 27.13306 -143.49493 36240 ft 446 kts 248°
2026-05-05 04:11 27.10727 -143.55840 36241 ft 446 kts 248°
2026-05-05 04:11 27.08147 -143.62181 36242 ft 446 kts 248°
2026-05-05 04:12 27.05568 -143.68507 36234 ft 446 kts 248°
2026-05-05 04:12 27.02986 -143.74833 36232 ft 446 kts 248°
2026-05-05 04:13 27.00395 -143.81170 36232 ft 446 kts 248°
2026-05-05 04:13 26.97817 -143.87466 36236 ft 447 kts 248°
2026-05-05 04:14 26.95219 -143.93800 36239 ft 446 kts 247°
2026-05-05 04:14 26.92626 -144.00112 36240 ft 447 kts 247°
2026-05-05 04:15 26.90021 -144.06445 36225 ft 447 kts 247°
2026-05-05 04:15 26.87433 -144.12726 36236 ft 446 kts 247°
2026-05-05 04:16 26.84827 -144.19040 36232 ft 447 kts 247°
2026-05-05 04:16 26.82218 -144.25352 36232 ft 447 kts 247°
2026-05-05 04:17 26.79606 -144.31664 36230 ft 447 kts 247°
2026-05-05 04:17 26.76987 -144.37981 36228 ft 447 kts 247°
2026-05-05 04:18 26.74366 -144.44293 36230 ft 447 kts 247°
2026-05-05 04:18 26.71745 -144.50596 36229 ft 446 kts 247°
2026-05-05 04:19 26.69139 -144.56853 36227 ft 447 kts 247°
2026-05-05 04:19 26.66512 -144.63152 36229 ft 447 kts 247°
2026-05-05 04:20 26.63882 -144.69447 36226 ft 447 kts 247°
2026-05-05 04:20 26.61246 -144.75747 36233 ft 447 kts 247°
2026-05-05 04:21 26.58611 -144.82035 36221 ft 446 kts 247°
2026-05-05 04:21 26.55978 -144.88308 36223 ft 446 kts 247°
2026-05-05 04:22 26.53355 -144.94548 36227 ft 446 kts 247°
2026-05-05 04:22 26.50715 -145.00822 36226 ft 446 kts 247°
2026-05-05 04:23 26.48070 -145.07096 36225 ft 446 kts 247°
2026-05-05 04:23 26.45421 -145.13371 36216 ft 446 kts 247°
2026-05-05 04:24 26.42773 -145.19634 36220 ft 446 kts 247°
2026-05-05 04:25 26.38812 -145.28987 36221 ft 446 kts 247°
2026-05-05 04:25 26.36153 -145.35251 36220 ft 446 kts 247°
2026-05-05 04:26 26.33498 -145.41499 36215 ft 446 kts 247°
2026-05-05 04:26 26.30838 -145.47747 36211 ft 446 kts 247°
2026-05-05 04:27 26.28173 -145.53999 36212 ft 446 kts 247°
2026-05-05 04:27 26.25513 -145.60228 36217 ft 445 kts 247°
2026-05-05 04:28 26.22847 -145.66465 36210 ft 445 kts 247°
2026-05-05 04:28 26.20181 -145.72691 36216 ft 445 kts 247°
2026-05-05 04:29 26.17512 -145.78914 36213 ft 445 kts 247°
2026-05-05 04:29 26.14839 -145.85140 36203 ft 445 kts 247°
2026-05-05 04:30 26.12180 -145.91322 36208 ft 444 kts 247°
2026-05-05 04:30 26.09503 -145.97536 36210 ft 444 kts 247°
2026-05-05 04:31 26.06827 -146.03741 36210 ft 444 kts 247°
2026-05-05 04:31 26.04151 -146.09937 36203 ft 444 kts 246°
2026-05-05 04:32 26.01490 -146.16090 36212 ft 444 kts 246°
2026-05-05 04:32 25.98711 -146.22233 36189 ft 445 kts 244°
2026-05-05 04:33 25.95781 -146.28280 36203 ft 443 kts 245°
2026-05-05 04:33 25.93035 -146.34409 36214 ft 443 kts 246°
2026-05-05 04:34 25.90341 -146.40578 36199 ft 444 kts 246°
2026-05-05 04:34 25.87642 -146.46752 36213 ft 444 kts 246°
2026-05-05 04:35 25.84944 -146.52936 36198 ft 444 kts 246°
2026-05-05 04:35 25.82248 -146.59116 36207 ft 444 kts 246°
2026-05-05 04:36 25.79553 -146.65285 36203 ft 444 kts 246°
2026-05-05 04:36 25.76878 -146.71403 36207 ft 443 kts 246°
2026-05-05 04:37 25.74183 -146.77556 36197 ft 444 kts 246°
2026-05-05 04:37 25.71480 -146.83718 36202 ft 443 kts 246°
2026-05-05 04:38 25.68776 -146.89874 36196 ft 444 kts 246°
2026-05-05 04:38 25.66073 -146.96019 36195 ft 443 kts 246°
2026-05-05 04:39 25.63368 -147.02161 36195 ft 443 kts 246°
2026-05-05 04:39 25.60663 -147.08293 36202 ft 442 kts 246°
2026-05-05 04:40 25.57976 -147.14378 36192 ft 443 kts 246°
2026-05-05 04:40 25.55262 -147.20515 36197 ft 443 kts 246°
2026-05-05 04:41 25.52547 -147.26644 36191 ft 443 kts 246°
2026-05-05 04:41 25.49830 -147.32770 36180 ft 443 kts 246°
2026-05-05 04:42 25.47114 -147.38882 36202 ft 442 kts 246°
2026-05-05 04:42 25.44394 -147.44998 36190 ft 442 kts 246°
2026-05-05 04:43 25.41691 -147.51069 36194 ft 442 kts 246°
2026-05-05 04:43 25.38964 -147.57183 36186 ft 443 kts 246°
2026-05-05 04:44 25.36235 -147.63292 36186 ft 443 kts 246°
2026-05-05 04:44 25.33504 -147.69400 36185 ft 443 kts 246°
2026-05-05 04:45 25.30772 -147.75499 36183 ft 442 kts 246°
2026-05-05 04:45 25.28038 -147.81596 36188 ft 442 kts 246°
2026-05-05 04:46 25.25321 -147.87649 36187 ft 442 kts 246°
2026-05-05 04:46 25.22580 -147.93743 36191 ft 442 kts 246°
2026-05-05 04:47 25.19841 -147.99826 36183 ft 443 kts 246°
2026-05-05 04:47 25.17095 -148.05917 36189 ft 442 kts 246°
2026-05-05 04:48 25.14347 -148.12001 36180 ft 442 kts 246°
2026-05-05 04:48 25.11618 -148.18037 36190 ft 442 kts 246°
2026-05-05 04:49 25.08870 -148.24110 36185 ft 442 kts 246°
2026-05-05 04:49 25.06119 -148.30176 36187 ft 442 kts 246°
2026-05-05 04:50 25.03362 -148.36249 36180 ft 442 kts 246°
2026-05-05 04:50 25.00607 -148.42310 36186 ft 442 kts 246°
2026-05-05 04:51 24.97844 -148.48380 36176 ft 442 kts 246°
2026-05-05 04:51 24.95550 -148.53414 36184 ft 442 kts 246°
2026-05-05 04:52 24.92787 -148.59469 36183 ft 442 kts 246°
2026-05-05 04:52 24.90020 -148.65525 36185 ft 442 kts 246°
2026-05-05 04:53 24.87250 -148.71577 36175 ft 442 kts 246°
2026-05-05 04:53 24.84481 -148.77623 36183 ft 442 kts 246°
2026-05-05 04:54 24.81703 -148.83678 36178 ft 443 kts 246°
2026-05-05 04:54 24.78942 -148.89689 36183 ft 442 kts 246°
2026-05-05 04:55 24.76162 -148.95733 36180 ft 443 kts 246°
2026-05-05 04:55 24.73379 -149.01775 36183 ft 442 kts 246°
2026-05-05 04:56 24.70590 -149.07822 36178 ft 443 kts 246°
2026-05-05 04:56 24.67800 -149.13864 36182 ft 443 kts 246°
2026-05-05 04:57 24.65010 -149.19900 36179 ft 443 kts 245°
2026-05-05 04:57 24.62215 -149.25935 36167 ft 443 kts 246°
2026-05-05 04:58 24.59437 -149.31926 36185 ft 442 kts 246°
2026-05-05 04:58 24.56640 -149.37952 36178 ft 442 kts 245°
2026-05-05 04:59 24.53841 -149.43974 36183 ft 442 kts 245°
2026-05-05 04:59 24.51039 -149.49995 36180 ft 443 kts 245°
2026-05-05 05:00 24.48230 -149.56020 36180 ft 443 kts 245°
2026-05-05 05:00 24.45423 -149.62035 36185 ft 442 kts 245°
2026-05-05 05:01 24.42613 -149.68051 36177 ft 442 kts 245°
2026-05-05 05:01 24.39822 -149.74016 36186 ft 442 kts 245°
2026-05-05 05:02 24.37012 -149.80016 36181 ft 442 kts 245°
2026-05-05 05:02 24.34200 -149.86011 36188 ft 442 kts 245°
2026-05-05 05:03 24.31380 -149.92015 36178 ft 443 kts 245°
2026-05-05 05:03 24.28571 -149.97988 36182 ft 443 kts 245°
2026-05-05 05:04 24.25744 -150.03992 36183 ft 443 kts 245°
2026-05-05 05:04 24.22915 -150.09989 36180 ft 442 kts 245°
2026-05-05 05:05 24.20088 -150.15979 36174 ft 441 kts 245°
2026-05-05 05:05 24.17262 -150.21959 36180 ft 442 kts 245°
2026-05-05 05:06 24.14434 -150.27934 36177 ft 442 kts 245°
2026-05-05 05:06 24.11622 -150.33868 36183 ft 442 kts 245°
2026-05-05 05:07 24.08790 -150.39837 36186 ft 442 kts 245°
2026-05-05 05:07 24.05955 -150.45805 36162 ft 442 kts 245°
2026-05-05 05:08 24.03118 -150.51768 36178 ft 441 kts 245°
2026-05-05 05:08 24.00285 -150.57717 36169 ft 441 kts 245°
2026-05-05 05:09 23.97451 -150.63661 36176 ft 441 kts 245°
2026-05-05 05:09 23.94614 -150.69604 36175 ft 441 kts 245°
2026-05-05 05:10 23.91792 -150.75508 36172 ft 441 kts 245°
2026-05-05 05:10 23.88950 -150.81447 36177 ft 441 kts 245°
2026-05-05 05:11 23.86103 -150.87386 36164 ft 441 kts 245°
2026-05-05 05:11 23.83258 -150.93314 36173 ft 440 kts 245°
2026-05-05 05:12 23.80415 -150.99233 36171 ft 440 kts 245°
2026-05-05 05:12 23.77572 -151.05142 36170 ft 440 kts 245°
2026-05-05 05:13 23.74720 -151.11064 36173 ft 440 kts 245°
2026-05-05 05:13 23.71891 -151.16931 36170 ft 440 kts 245°
2026-05-05 05:14 23.69038 -151.22841 36174 ft 440 kts 245°
2026-05-05 05:14 23.66184 -151.28745 36167 ft 439 kts 245°
2026-05-05 05:15 23.63325 -151.34652 36168 ft 440 kts 245°
2026-05-05 05:15 23.60464 -151.40557 36171 ft 439 kts 245°
2026-05-05 05:16 23.57624 -151.46410 36169 ft 440 kts 245°
2026-05-05 05:16 23.54761 -151.52304 36170 ft 439 kts 245°
2026-05-05 05:17 23.51899 -151.58189 36168 ft 440 kts 245°
2026-05-05 05:17 23.49034 -151.64072 36170 ft 440 kts 245°
2026-05-05 05:18 23.46167 -151.69952 36171 ft 440 kts 245°
2026-05-05 05:18 23.43291 -151.75845 36159 ft 441 kts 245°
2026-05-05 05:19 23.40408 -151.81744 36172 ft 441 kts 245°
2026-05-05 05:19 23.37526 -151.87636 36167 ft 440 kts 245°
2026-05-05 05:20 23.34644 -151.93519 36158 ft 441 kts 245°
2026-05-05 05:20 23.31773 -151.99373 36171 ft 441 kts 245°
2026-05-05 05:21 23.28882 -152.05261 36157 ft 441 kts 245°
2026-05-05 05:21 23.25986 -152.11151 36156 ft 441 kts 244°
2026-05-05 05:22 23.23107 -152.17003 36163 ft 442 kts 244°
2026-05-05 05:22 23.20195 -152.22914 36162 ft 443 kts 244°
2026-05-05 05:23 23.17283 -152.28816 36157 ft 443 kts 244°
2026-05-05 05:23 23.14367 -152.34719 36164 ft 443 kts 244°
2026-05-05 05:24 23.11451 -152.40615 36153 ft 443 kts 244°
2026-05-05 05:24 23.08531 -152.46514 36160 ft 443 kts 244°
2026-05-05 05:25 23.05609 -152.52408 36149 ft 443 kts 244°
2026-05-05 05:25 23.02692 -152.58274 36160 ft 444 kts 244°
2026-05-05 05:26 22.99608 -152.64103 36156 ft 445 kts 242°
2026-05-05 05:26 22.96467 -152.69896 36153 ft 445 kts 243°
2026-05-05 05:27 22.93469 -152.75773 36153 ft 445 kts 244°
2026-05-05 05:27 22.89017 -152.84599 36153 ft 445 kts 244°
2026-05-05 05:28 22.86052 -152.90483 36155 ft 445 kts 244°
2026-05-05 05:28 22.83088 -152.96367 36155 ft 445 kts 244°
2026-05-05 05:29 22.80137 -153.02219 36151 ft 445 kts 244°
2026-05-05 05:29 22.77168 -153.08102 36152 ft 444 kts 244°
2026-05-05 05:30 22.74197 -153.13983 36155 ft 444 kts 244°
2026-05-05 05:30 22.71225 -153.19858 36149 ft 444 kts 244°
2026-05-05 05:31 22.68252 -153.25727 36153 ft 444 kts 244°
2026-05-05 05:31 22.65276 -153.31594 36153 ft 444 kts 244°
2026-05-05 05:32 22.62320 -153.37418 36143 ft 445 kts 244°
2026-05-05 05:32 22.59335 -153.43292 36148 ft 446 kts 244°
2026-05-05 05:33 22.56346 -153.49166 36146 ft 446 kts 244°
2026-05-05 05:33 22.53354 -153.55041 36148 ft 446 kts 244°
2026-05-05 05:34 22.50359 -153.60913 36144 ft 446 kts 244°
2026-05-05 05:34 22.47358 -153.66792 36146 ft 446 kts 244°
2026-05-05 05:35 22.44358 -153.72662 36148 ft 446 kts 243°
2026-05-05 05:35 22.41357 -153.78525 36131 ft 445 kts 243°
2026-05-05 05:36 22.38392 -153.84412 36135 ft 445 kts 248°
2026-05-05 05:36 22.37501 -153.87543 36068 ft 440 kts 264°
2026-05-05 05:36 22.37398 -153.90822 36150 ft 435 kts 271°
2026-05-05 05:37 22.37187 -153.97407 36143 ft 441 kts 266°
2026-05-05 05:37 22.36866 -154.04027 36143 ft 441 kts 269°
2026-05-05 05:38 22.36892 -154.09541 36142 ft 441 kts 271°
2026-05-05 05:38 22.37004 -154.16177 36145 ft 441 kts 271°
2026-05-05 05:39 22.37119 -154.22801 36139 ft 441 kts 271°
2026-05-05 05:39 22.37246 -154.29425 36140 ft 441 kts 271°
2026-05-05 05:40 22.37375 -154.36005 36145 ft 441 kts 271°
2026-05-05 05:40 22.37504 -154.42627 36141 ft 440 kts 271°
2026-05-05 05:41 22.37630 -154.49247 36138 ft 440 kts 271°
2026-05-05 05:41 22.37753 -154.55866 36136 ft 440 kts 271°
2026-05-05 05:42 22.37874 -154.62484 36135 ft 440 kts 271°
2026-05-05 05:42 22.37992 -154.69084 35740 ft 444 kts 271°
2026-05-05 05:43 22.38051 -154.72413 35365 ft 441 kts 271°
2026-05-05 05:43 22.38108 -154.75713 35003 ft 437 kts 271°
2026-05-05 05:43 22.38164 -154.78991 34651 ft 435 kts 271°
2026-05-05 05:43 22.38219 -154.82252 34304 ft 433 kts 271°
2026-05-05 05:44 22.38274 -154.85503 33926 ft 432 kts 271°
2026-05-05 05:44 22.38328 -154.88743 33534 ft 430 kts 271°
2026-05-05 05:44 22.38381 -154.91965 33080 ft 429 kts 271°
2026-05-05 05:44 22.38433 -154.95175 32619 ft 426 kts 271°
2026-05-05 05:45 22.38483 -154.98362 32171 ft 422 kts 271°
2026-05-05 05:45 22.38533 -155.01522 31732 ft 419 kts 271°
2026-05-05 05:45 22.38581 -155.04636 31299 ft 417 kts 271°
2026-05-05 05:45 22.38628 -155.07754 30871 ft 414 kts 271°
2026-05-05 05:46 22.38675 -155.10860 30438 ft 412 kts 271°
2026-05-05 05:46 22.38720 -155.13940 29998 ft 409 kts 271°
2026-05-05 05:46 22.38765 -155.17013 29512 ft 407 kts 271°
2026-05-05 05:46 22.38809 -155.20058 29034 ft 405 kts 271°
2026-05-05 05:47 22.38852 -155.23093 28560 ft 402 kts 271°
2026-05-05 05:47 22.38894 -155.26103 28093 ft 400 kts 271°
2026-05-05 05:47 22.38936 -155.29106 27637 ft 398 kts 270°
2026-05-05 05:47 22.38977 -155.32085 27192 ft 395 kts 270°
2026-05-05 05:48 22.39017 -155.35049 26748 ft 393 kts 270°
2026-05-05 05:48 22.39056 -155.38004 26306 ft 392 kts 270°
2026-05-05 05:48 22.39094 -155.40945 25879 ft 391 kts 270°
2026-05-05 05:48 22.39132 -155.43874 25466 ft 389 kts 270°
2026-05-05 05:49 22.39169 -155.46760 25056 ft 387 kts 270°
2026-05-05 05:49 22.39206 -155.49669 24645 ft 386 kts 270°
2026-05-05 05:49 22.39242 -155.52565 24242 ft 384 kts 270°
2026-05-05 05:49 22.39278 -155.55446 23882 ft 382 kts 270°
2026-05-05 05:50 22.39312 -155.58309 23532 ft 381 kts 270°
2026-05-05 05:50 22.39346 -155.61165 23136 ft 379 kts 270°
2026-05-05 05:50 22.39379 -155.64008 22749 ft 378 kts 270°
2026-05-05 05:50 22.39412 -155.66839 22367 ft 376 kts 270°
2026-05-05 05:51 22.39444 -155.69655 21985 ft 373 kts 270°
2026-05-05 05:51 22.39475 -155.72451 21609 ft 371 kts 270°
2026-05-05 05:51 22.39506 -155.75241 21238 ft 369 kts 270°
2026-05-05 05:51 22.39536 -155.78011 20873 ft 368 kts 270°
2026-05-05 05:52 22.39565 -155.80732 20590 ft 365 kts 270°
2026-05-05 05:52 22.39593 -155.83442 20350 ft 354 kts 270°
2026-05-05 05:52 22.39620 -155.86068 20114 ft 344 kts 270°
2026-05-05 05:52 22.39645 -155.88634 19886 ft 340 kts 270°
2026-05-05 05:53 22.39669 -155.91184 19656 ft 339 kts 270°
2026-05-05 05:53 22.39692 -155.93732 19419 ft 339 kts 270°
2026-05-05 05:53 22.39716 -155.96279 19186 ft 339 kts 270°
2026-05-05 05:53 22.39740 -155.98823 18961 ft 338 kts 270°
2026-05-05 05:54 22.39764 -156.01365 18732 ft 337 kts 270°
2026-05-05 05:54 22.39787 -156.03890 18509 ft 335 kts 270°
2026-05-05 05:54 22.39809 -156.06370 18268 ft 333 kts 270°
2026-05-05 05:54 22.39831 -156.08877 18015 ft 333 kts 270°
2026-05-05 05:55 22.39852 -156.11375 17752 ft 332 kts 270°
2026-05-05 05:55 22.39873 -156.13867 17503 ft 332 kts 270°
2026-05-05 05:55 22.39894 -156.16359 17245 ft 331 kts 270°
2026-05-05 05:55 22.39915 -156.18835 16993 ft 328 kts 270°
2026-05-05 05:56 22.39758 -156.21283 16712 ft 327 kts 257°
2026-05-05 05:56 22.38884 -156.23527 16439 ft 324 kts 239°
2026-05-05 05:56 22.37603 -156.25533 16251 ft 324 kts 236°
2026-05-05 05:56 22.36343 -156.27562 16007 ft 324 kts 239°
2026-05-05 05:57 22.35141 -156.29616 15763 ft 323 kts 238°
2026-05-05 05:57 22.33910 -156.31610 15530 ft 322 kts 236°
2026-05-05 05:57 22.32567 -156.33552 15293 ft 322 kts 233°
2026-05-05 05:57 22.31159 -156.35399 15053 ft 314 kts 231°
2026-05-05 05:58 22.29779 -156.37195 14823 ft 308 kts 233°
2026-05-05 05:58 22.28443 -156.38993 14592 ft 305 kts 233°
2026-05-05 05:58 22.27123 -156.40789 14369 ft 305 kts 233°
2026-05-05 05:58 22.25788 -156.42577 14132 ft 305 kts 233°
2026-05-05 05:59 22.24464 -156.44321 13912 ft 303 kts 233°
2026-05-05 05:59 22.23120 -156.46078 13659 ft 303 kts 233°
2026-05-05 05:59 22.21775 -156.47830 13408 ft 302 kts 233°
2026-05-05 05:59 22.20438 -156.49572 13154 ft 301 kts 232°
2026-05-05 06:00 22.19100 -156.51317 12914 ft 301 kts 232°
2026-05-05 06:00 22.17763 -156.53054 12656 ft 299 kts 233°
2026-05-05 06:00 22.16445 -156.54771 12537 ft 297 kts 231°
2026-05-05 06:00 22.15122 -156.56490 12417 ft 298 kts 232°
2026-05-05 06:01 22.13793 -156.58214 12296 ft 298 kts 232°
2026-05-05 06:01 22.12486 -156.59911 12174 ft 297 kts 232°
2026-05-05 06:01 22.11164 -156.61625 12043 ft 297 kts 232°
2026-05-05 06:01 22.09841 -156.63340 11918 ft 296 kts 231°
2026-05-05 06:02 22.08525 -156.65048 11802 ft 296 kts 232°
2026-05-05 06:02 22.07204 -156.66760 11671 ft 297 kts 232°
2026-05-05 06:02 22.05886 -156.68469 11563 ft 296 kts 232°
2026-05-05 06:02 22.04570 -156.70178 11424 ft 296 kts 232°
2026-05-05 06:03 22.03250 -156.71888 11321 ft 297 kts 232°
2026-05-05 06:03 22.01930 -156.73595 11213 ft 295 kts 232°
2026-05-05 06:03 22.00617 -156.75294 11079 ft 296 kts 231°
2026-05-05 06:03 21.99300 -156.76999 10970 ft 296 kts 231°
2026-05-05 06:04 21.97984 -156.78700 10845 ft 295 kts 231°
2026-05-05 06:04 21.96681 -156.80386 10730 ft 296 kts 231°
2026-05-05 06:04 21.95362 -156.82089 10622 ft 296 kts 231°
2026-05-05 06:04 21.94046 -156.83790 10502 ft 295 kts 231°
2026-05-05 06:05 21.92729 -156.85491 10384 ft 295 kts 231°
2026-05-05 06:05 21.91414 -156.87187 10264 ft 295 kts 231°
2026-05-05 06:05 21.90100 -156.88884 10150 ft 295 kts 231°
2026-05-05 06:05 21.88787 -156.90578 10038 ft 295 kts 231°
2026-05-05 06:06 21.87468 -156.92278 9920 ft 295 kts 231°
2026-05-05 06:06 21.86155 -156.93974 9788 ft 295 kts 231°
2026-05-05 06:06 21.84812 -156.95636 9660 ft 294 kts 228°
2026-05-05 06:06 21.83444 -156.97272 9533 ft 294 kts 229°
2026-05-05 06:07 21.82129 -156.98951 9398 ft 293 kts 231°
2026-05-05 06:07 21.80872 -157.00639 9282 ft 292 kts 232°
2026-05-05 06:07 21.79604 -157.02345 9149 ft 292 kts 231°
2026-05-05 06:07 21.78322 -157.04036 9019 ft 291 kts 231°
2026-05-05 06:08 21.77027 -157.05714 8890 ft 291 kts 230°
2026-05-05 06:08 21.75730 -157.07383 8773 ft 290 kts 230°
2026-05-05 06:08 21.74436 -157.09050 8646 ft 290 kts 230°
2026-05-05 06:08 21.73143 -157.10716 8519 ft 290 kts 230°
2026-05-05 06:09 21.71852 -157.12381 8401 ft 289 kts 230°
2026-05-05 06:09 21.70562 -157.14041 8272 ft 289 kts 230°
2026-05-05 06:09 21.69275 -157.15697 8147 ft 288 kts 229°
2026-05-05 06:09 21.67990 -157.17351 8022 ft 288 kts 229°
2026-05-05 06:10 21.66724 -157.18979 7904 ft 287 kts 229°
2026-05-05 06:10 21.65443 -157.20625 7797 ft 287 kts 229°
2026-05-05 06:10 21.64163 -157.22270 7667 ft 287 kts 230°
2026-05-05 06:10 21.62884 -157.23914 7548 ft 286 kts 229°
2026-05-05 06:11 21.61608 -157.25553 7426 ft 285 kts 229°
2026-05-05 06:11 21.60334 -157.27190 7304 ft 285 kts 229°
2026-05-05 06:11 21.59065 -157.28818 7184 ft 284 kts 229°
2026-05-05 06:11 21.57797 -157.30444 7068 ft 283 kts 229°
2026-05-05 06:12 21.56533 -157.32066 6944 ft 283 kts 229°
2026-05-05 06:12 21.55267 -157.33689 6826 ft 283 kts 229°
2026-05-05 06:12 21.54005 -157.35307 6713 ft 282 kts 229°
2026-05-05 06:12 21.52745 -157.36923 6588 ft 282 kts 229°
2026-05-05 06:13 21.51487 -157.38533 6484 ft 281 kts 229°
2026-05-05 06:13 21.50247 -157.40121 6347 ft 281 kts 229°
2026-05-05 06:13 21.48995 -157.41729 6215 ft 279 kts 229°
2026-05-05 06:13 21.47751 -157.43324 6082 ft 278 kts 229°
2026-05-05 06:14 21.46511 -157.44910 5961 ft 277 kts 229°
2026-05-05 06:14 21.45268 -157.46498 5843 ft 278 kts 229°
2026-05-05 06:14 21.44024 -157.48087 5712 ft 278 kts 229°
2026-05-05 06:14 21.42780 -157.49676 5588 ft 278 kts 229°
2026-05-05 06:15 21.41532 -157.51267 5462 ft 279 kts 229°
2026-05-05 06:15 21.40279 -157.52857 5339 ft 280 kts 229°
2026-05-05 06:15 21.39024 -157.54449 5207 ft 279 kts 228°
2026-05-05 06:15 21.37774 -157.56039 5092 ft 279 kts 228°
2026-05-05 06:16 21.36524 -157.57631 4975 ft 279 kts 228°
2026-05-05 06:16 21.35294 -157.59198 4839 ft 277 kts 229°
2026-05-05 06:16 21.34053 -157.60785 4734 ft 278 kts 229°
2026-05-05 06:16 21.32802 -157.62378 4606 ft 280 kts 228°
2026-05-05 06:17 21.31546 -157.63973 4484 ft 279 kts 229°
2026-05-05 06:17 21.30294 -157.65568 4360 ft 280 kts 227°
2026-05-05 06:17 21.29032 -157.67179 4250 ft 282 kts 229°
2026-05-05 06:17 21.27768 -157.68805 4088 ft 284 kts 229°
2026-05-05 06:18 21.26531 -157.70443 4001 ft 281 kts 229°
2026-05-05 06:18 21.25306 -157.72090 4008 ft 285 kts 230°
2026-05-05 06:18 21.24064 -157.73751 3991 ft 284 kts 230°
2026-05-05 06:18 21.22824 -157.75374 3989 ft 277 kts 230°
2026-05-05 06:19 21.21637 -157.76910 3963 ft 256 kts 229°
2026-05-05 06:19 21.20549 -157.78311 3979 ft 242 kts 229°
2026-05-05 06:19 21.19465 -157.79700 4017 ft 245 kts 229°
2026-05-05 06:19 21.18364 -157.81108 3991 ft 248 kts 229°
2026-05-05 06:20 21.17260 -157.82530 3987 ft 248 kts 229°
2026-05-05 06:20 21.16157 -157.83947 3992 ft 247 kts 229°
2026-05-05 06:20 21.15051 -157.85366 3866 ft 248 kts 229°
2026-05-05 06:20 21.13963 -157.86765 3727 ft 240 kts 229°
2026-05-05 06:21 21.12906 -157.88131 3618 ft 238 kts 229°
2026-05-05 06:21 21.11851 -157.89490 3514 ft 236 kts 229°
2026-05-05 06:21 21.10795 -157.90850 3408 ft 238 kts 229°
2026-05-05 06:21 21.09737 -157.92231 3293 ft 241 kts 229°
2026-05-05 06:22 21.08768 -157.93704 3146 ft 244 kts 242°
2026-05-05 06:22 21.08347 -157.95431 2983 ft 237 kts 274°
2026-05-05 06:22 21.08767 -157.97077 2982 ft 226 kts 299°
2026-05-05 06:22 21.09578 -157.98534 3058 ft 231 kts 307°
2026-05-05 06:23 21.10483 -157.99944 3006 ft 234 kts 309°
2026-05-05 06:23 21.11425 -158.01376 2939 ft 234 kts 309°
2026-05-05 06:23 21.12369 -158.02813 2834 ft 236 kts 308°
2026-05-05 06:23 21.13355 -158.04207 2739 ft 235 kts 316°
2026-05-05 06:24 21.14486 -158.05454 2672 ft 233 kts 321°
2026-05-05 06:24 21.15668 -158.06633 2617 ft 231 kts 321°
2026-05-05 06:24 21.16858 -158.07781 2553 ft 226 kts 323°
2026-05-05 06:24 21.18034 -158.08929 2496 ft 229 kts 323°
2026-05-05 06:25 21.19160 -158.10054 2388 ft 213 kts 321°
2026-05-05 06:25 21.20219 -158.11119 2316 ft 206 kts 322°
2026-05-05 06:25 21.21378 -158.11864 2452 ft 198 kts 347°
2026-05-05 06:25 21.22737 -158.11983 2415 ft 194 kts 14°
2026-05-05 06:26 21.23980 -158.11550 2306 ft 183 kts 35°
2026-05-05 06:26 21.24849 -158.10603 2313 ft 173 kts 59°
2026-05-05 06:26 21.25315 -158.09378 2284 ft 186 kts 73°
2026-05-05 06:26 21.25512 -158.08047 2025 ft 178 kts 88°
2026-05-05 06:27 21.25251 -158.06741 1469 ft 180 kts 105°
2026-05-05 06:27 21.24735 -158.04829 1170 ft 146 kts 98°
2026-05-05 06:27 21.24646 -158.03816 1007 ft 132 kts 89°
2026-05-05 06:28 21.24615 -158.02845 1095 ft 131 kts 87°
2026-05-05 06:28 21.24851 -158.01894 1189 ft 136 kts 65°
2026-05-05 06:28 21.25328 -158.01036 1515 ft 133 kts 59°
2026-05-05 06:28 21.25890 -158.00181 1431 ft 142 kts 55°
2026-05-05 06:29 21.26512 -157.99376 1341 ft 137 kts 52°
2026-05-05 06:29 21.27134 -157.98596 1209 ft 140 kts 53°
2026-05-05 06:29 21.27782 -157.97822 925 ft 140 kts 49°
2026-05-05 06:29 21.28385 -157.97005 793 ft 141 kts 52°
2026-05-05 06:30 21.28957 -157.96136 695 ft 142 kts 54°
2026-05-05 06:30 21.29535 -157.95273 545 ft 145 kts 51°
2026-05-05 06:30 21.30171 -157.94422 387 ft 148 kts 49°
2026-05-05 06:30 21.30807 -157.93554 252 ft 148 kts 52°
2026-05-05 06:31 21.31426 -157.92674 65 ft 146 kts 52°
2026-05-05 06:31 21.31958 -157.91921 28 ft 104 kts 53°
2026-05-05 06:31 21.32280 -157.91470 28 ft 43 kts 47°
2026-05-05 06:31 21.32442 -157.91359 29 ft 19 kts 17°
2026-05-05 06:32 21.32573 -157.91329 29 ft 18 kts
2026-05-05 06:32 21.32634 -157.91321 29 ft 7 kts
2026-05-05 06:32 21.32695 -157.91312 29 ft 11 kts
2026-05-05 06:32 21.32759 -157.91314 29 ft 7 kts 326°
2026-05-05 06:33 21.32775 -157.91357 29 ft 7 kts 272°
2026-05-05 06:33 21.32774 -157.91424 29 ft 11 kts 271°
2026-05-05 06:33 21.32775 -157.91482 29 ft 10 kts 271°
2026-05-05 06:33 21.32776 -157.91575 29 ft 15 kts 271°
2026-05-05 06:34 21.32778 -157.91701 29 ft 19 kts 271°
2026-05-05 06:34 21.32778 -157.91812 29 ft 13 kts 269°
2026-05-05 06:34 21.32793 -157.91885 29 ft 9 kts 306°
2026-05-05 06:34 21.32829 -157.91920 29 ft 2 kts 319°
2026-05-05 06:35 21.32851 -157.91940 29 ft 7 kts 319°
2026-05-05 06:35 21.32873 -157.91960 29 ft 3 kts 320°
2026-05-05 06:35 21.32885 -157.91971 29 ft 0 kts 320°
2026-05-05 06:35 21.32891 -157.91977 29 ft 1 kts 319°
2026-05-05 06:36 21.32892 -157.91977 29 ft 0 kts 319°